Location: Kershaw
(34.5481°N, 80.5823°W)
Time: 10:59:44
(UTC+00:00)

Explorer 7 - Pass Details

Date: 03 October 2022
Orbit: 481 x 665 km, 50.3° (Epoch: 26 November)

Event Time Altitude Azimuth Distance (km) Brightness Sun altitude
Rises 23:00:43 0° 303° (WNW) 2,862 11.4 -0.2°
Maximum altitude 23:07:15 38° 228° (SW) 872 8.5 -1.6°
Drops below altitude 10° 23:11:05 10° 160° (SSE) 1,802 9.3 -2.4°
Sets 23:13:20 0° 152° (SSE) 2,658 10.1 -2.8°
